Preview of NWS' New Version of Forecast
This preview is not operational and should not be used for support decisions.
Latest weather observations around

Spokane, Spokane International Airport (KGEG)

Using International System of Units (Switch to English Units)
Date/ Time (PDT) Wind (kph) Vis. (km) Weather Sky Cond. Temp (°C) Rel. Humidity Wind Chill (°C) Heat Index (°C) Pressure Precip. (cm)
Air Dwpt 6 hour Altimeter (hPa) Sea level (hPa) 1 hr 3 hr 6 hr
Max Min
May 19 18:53 ENE 35 16.09 Partly Cloudy and Windy FEW060 FEW100 SCT230 16 2     38%     1005.1 1004.8      
May 19 17:53 ENE 37 16.09 Partly Cloudy and Windy FEW060 FEW100 SCT230 17 2     38%     1005.1 1004.7      
May 19 16:53   16.09 Partly Cloudy FEW060 FEW100 SCT230 18 3     37%     1004.8 1004.5      
May 19 15:53 NE 35 16.09 Partly Cloudy and Windy FEW055 FEW080 SCT230 18 3     37%     1005.1 1004.5      
May 19 14:53 NE 30 16.09 Mostly Cloudy FEW055 SCT080 BKN230 18 4     38%     1005.4 1004.8      
May 19 13:53 NE 35 16.09 Mostly Cloudy and Windy FEW050 FEW070 BKN230 17 4     41%     1005.8        
May 19 12:53 ENE 30 16.09 Mostly Cloudy FEW050 FEW070 BKN230 16 4     44%     1006.1 1005.8      
May 19 11:53 ENE 28 16.09 Mostly Cloudy FEW070 BKN230 16 3     44%     1006.4 1005.9      
May 19 10:53 ENE 24 16.09 Mostly Cloudy FEW060 FEW100 BKN250 14 3     47%     1006.8 1006.4      
May 19 09:53 E 24 16.09 Mostly Cloudy FEW060 FEW100 BKN250 13 3     51%     1007.1 1006.9      
May 19 08:53 E 28 16.09 Mostly Cloudy FEW060 FEW100 BKN250 12 2     50%     1007.8 1007.4      
May 19 07:53 NE 21 16.09 Partly Cloudy FEW050 FEW120 SCT250 11 2     54%     1007.5 1007.2      
May 19 06:53 NNE 18 16.09 Partly Cloudy FEW055 FEW120 SCT250 9 2     61% 7   1007.8 1007.5      
May 19 05:53 NE 15 16.09 Mostly Clear FEW075 FEW120 FEW190 8 2     68% 5   1007.5 1007.5      
May 19 04:53 NE 9 16.09 Mostly Clear FEW100 FEW140 8 2     68% 6   1008.1 1008      
May 19 03:53 NE 11 16.09 Mostly Clear FEW100 FEW150 8 3     68% 6   1008.1 1008.1      
May 19 02:53 NNE 13 16.09 Mostly Clear FEW100 FEW150 8 3     71% 6   1007.8 1008      
May 19 01:53 NE 11 16.09 Mostly Cloudy BKN090 BKN120 10 4     67% 8   1008.1        
May 19 00:53 NE 11 16.09 Mostly Cloudy BKN120 10 5     71%     1009.2        
May 18 23:53 NE 11 16.09 Mostly Cloudy BKN120 9 6     77% 8   1008.8 1008.9      
May 18 22:53 NNE 13 16.09 Mostly Cloudy SCT100 BKN180 9 6     80% 7   1009.2 1009.1      
May 18 21:53 NE 13 16.09 Partly Cloudy FEW030 SCT170 10 6     77%     1008.8 1009      
May 18 20:53 NE 18 16.09 Partly Cloudy FEW030 FEW080 SCT250 11 6     69%     1008.8 1009.1      
May 18 19:53 ENE 24 16.09 Mostly Clear FEW029 FEW080 FEW250 12 6     64%     1009.2 1009.3      
May 18 18:53 ENE 21 16.09 Partly Cloudy FEW027 FEW050 FEW080 SCT250 13 6     60%     1009.5 1009.8      
May 18 17:53 ENE 21 16.09 Mostly Cloudy FEW029 SCT049 SCT080 BKN250 14 6     59%     1010.2 1010.2      
May 18 16:53 ENE 17 16.09 Mostly Cloudy SCT029 BKN047 BKN250 13 6     60%     1010.8 1010.9      
May 18 15:53 ENE 11 16.09 Mostly Cloudy SCT026 BKN045 13 6     62%     1011.2 1011.2      
May 18 14:53 E 13 16.09 Cloudy SCT025 OVC043 13 6     64%     1011.2 1011.3      
May 18 13:53 ENE 18 16.09 Cloudy SCT022 OVC040 12 6     66%     1011.5 1011.6      
May 18 12:53 ESE 5 16.09 Cloudy SCT025 OVC035 12 5     63%     1011.9 1011.9      
May 18 11:53 Calm 16.09 Cloudy SCT025 OVC032 12 5     63%     1011.9 1012      
May 18 10:53 S 8 16.09 Mostly Cloudy BKN020 BKN100 10 5     71%     1012.2 1012.4     0
May 18 10:30 SE 11 16.09 Mostly Cloudy BKN019 BKN090 BKN120 10 5     71%     1012.2        
May 18 09:53 SSW 15 16.09 Mostly Cloudy SCT015 BKN065 BKN120 9 5     77% 7   1012.2 1012.3      
May 18 08:53 SE 9 16.09 Cloudy BKN013 OVC035 8 4     79% 6   1012.5 1012.7      
May 18 08:32 SE 9 16.09 Cloudy SCT009 OVC012 7 5     86% 5   1012.2        
May 18 08:09 SE 9 16.09 Cloudy BKN009 OVC032 7 4     82% 5   1011.9        
May 18 07:53 SSE 11 16.09 Cloudy FEW009 BKN032 OVC060 7 4     82% 5   1011.5 1011.9   0  
May 18 06:53 SSE 11 16.09 Mostly Cloudy SCT009 BKN026 BKN055 7 4     85% 4   1011.9 1012 0    
May 18 05:53 S 11 16.09 Light Rain FEW008 BKN024 OVC055 7 4     85% 4   1011.2 1011.6 0    
May 18 05:36 SSE 9 16.09 Light Rain BKN023 OVC055 7 4     82% 5   1011.2   0    
May 18 04:53 S 11 16.09 Light Rain SCT037 BKN047 OVC055 7 4     85% 4   1011.2 1011.4 0   0
May 18 03:53 SSW 18 16.09 Light Rain SCT035 BKN060 OVC085 7 4     82% 4   1010.5 1010.8 0    
May 18 02:53 SSW 21 16.09 Light Rain FEW010 SCT045 OVC060 9 5     77% 6   1009.8 1010.1 0    
May 18 01:53 SW 11 16.09 Light Rain FEW003 FEW015 OVC055 10 7     83%     1009.5 1009.6 0 0  
May 18 01:43 SW 11 16.09 Light Rain FEW003 SCT045 OVC060 10 7     83%     1009.5   0    
May 18 00:53 SSE 5 16.09 Light Rain BKN030 OVC036 10 8     89%     1009.5 1009.6 0    
May 17 23:53 SSE 9 16.09 Light Rain FEW040 BKN055 OVC075 10 8     89%     1009.2 1009.3 0    
May 17 22:53 SSE 8 16.09 Light Rain SCT030 BKN042 OVC070 10 8     89%     1009.2 1009.1 0   0
May 17 22:11 SW 5 16.09 Light Rain SCT030 BKN038 OVC050 11 8     83%     1009.2   0    
May 17 21:53 WSW 8 16.09 Light Rain BKN029 BKN036 OVC055 11 8     83%     1008.8 1008.7 0    
May 17 21:25 SW 9 16.09 Light Rain BKN029 BKN034 OVC055 11 8     83%     1008.8   0    
May 17 20:53 SW 13 16.09 Light Rain BKN032 BKN050 OVC070 11 8     83%     1008.5 1008.5 0    
May 17 19:53 SW 13 12.87 Light Rain SCT033 BKN047 OVC070 11 8     83%     1008.1 1008.1 0 0  
May 17 19:18 WSW 17 11.27 Light Rain BKN033 BKN048 OVC070 12 8     80%     1008.1   0    
May 17 18:53 SW 17 9.66 Light Rain and Fog/Mist BKN028 BKN050 OVC070 12 8     80%     1008.1 1007.8 0    
May 17 17:53 WSW 21 8.05 Light Rain and Fog/Mist BKN026 BKN043 OVC055 12 8     80%     1007.8 1007.7 0    
May 17 17:06 SW 18 8.05 Light Rain and Fog/Mist BKN028 OVC045 12 8     80%     1007.8   0    
May 17 16:53 SW 18 8.05 Light Rain and Fog/Mist BKN033 OVC045 12 9     83%     1007.5 1007.4 0   1
May 17 16:18 WSW 22 8.05 Light Rain BKN030 BKN045 OVC060 12 9     83%     1007.5   0    
May 17 15:53 SW 22 8.05 Light Rain and Fog/Mist FEW006 BKN029 OVC047 11 9     86%     1007.5 1007.2 0    
May 17 14:53 SW 22 8.05 Light Rain and Fog/Mist FEW004 BKN027 OVC043 11 9     86%     1007.1 1006.9 0    
May 17 14:37 WSW 24 8.05 Light Rain and Fog/Mist FEW004 BKN029 OVC047 11 9     86%     1006.8   0    
May 17 13:53 WSW 30 6.44 Light Rain and Fog/Mist FEW002 BKN034 OVC055 11 9     86%     1006.4 1006.2 0 0  
May 17 13:32   6.44 Light Rain and Fog/Mist FEW002 BKN015 OVC022 11 9     86%     1006.1   0    
May 17 12:53   4.83 Light Rain and Fog/Mist FEW002 BKN015 OVC019 11 9     86%     1005.8 1005.7 0    
May 17 12:38 WSW 22 4.83 Light Rain and Fog/Mist FEW002 BKN016 OVC019 11 9     89%     1005.8   0    
May 17 12:22 WSW 26 4.83 Light Rain and Fog/Mist FEW002 BKN014 OVC019 11 9     89%     1005.4   0    
May 17 11:53 WSW 24 1.61 Light Rain and Fog/Mist FEW004 BKN014 OVC022 11 9     89%     1005.4 1005.1 0    
May 17 11:44 SW 24 2.41 Light Rain and Fog/Mist FEW008 BKN014 OVC022 11 9     89%     1005.1   0    
May 17 10:53 WSW 21 4.83 Light Rain and Fog/Mist FEW001 SCT009 OVC015 11 9     89%     1004.8 1004.5 0   1
May 17 10:02 WSW 18 4.83 Light Rain and Fog/Mist FEW001 BKN009 OVC015 12 10     89%     1004.1   0    
May 17 09:53 WSW 21 4.02 Light Rain and Fog/Mist FEW001 BKN007 OVC012 11 10     93%     1004.1 1003.7 0    
May 17 09:30 WSW 18 3.22 Light Rain and Fog/Mist FEW001 BKN012 OVC016 11 10     93%     1003.7   0    
May 17 09:04 WSW 15 4.02 Rain and Fog/Mist FEW001 BKN015 OVC020 11 9     89%     1003.4   0    
May 17 08:53 SSW 8 1.61 Rain and Fog/Mist FEW001 BKN016 OVC027 11 9     92%     1003.4 1003.2 1    
May 17 08:05 S 9 1.61 Light Rain and Fog/Mist FEW001 BKN013 OVC020 11 9     92%     1003.1   0    
May 17 07:53 S 11 1.61 Light Rain and Fog/Mist FEW001 SCT015 OVC020 11 9     92%     1003.1 1002.7 0 0  
May 17 07:34 S 9 1.61 Light Rain and Fog/Mist FEW001 BKN007 OVC015 11 10     93%     1002.7   0    
May 17 07:32 S 9 0.4 Light Rain and Fog FEW001 BKN007 OVC015 11 10     93%     1002.7   0    
May 17 07:18 SSE 8 1.61 Light Drizzle and Fog/Mist FEW001 BKN010 OVC015 11 10     93%     1002.7   0    
May 17 07:04 S 8 8.05 Light Drizzle and Fog/Mist FEW001 BKN010 OVC015 11 10     93%     1002.7   0    
May 17 06:53 S 8 8.05 Light Drizzle and Fog/Mist FEW001 BKN015 OVC027 11 10     93%     1002.7 1002.2 0    
May 17 06:41 S 5 8.05 Light Drizzle and Fog/Mist FEW001 BKN015 OVC027 11 10     93%     1002.4   0    
May 17 05:53 Calm 14.48 Light Rain FEW008 SCT009 OVC011 11 9     89%     1002 1001.8 0    
May 17 05:09 SSW 8 16.09 Cloudy SCT009 OVC011 12 9     86%     1002        
May 17 04:53 S 11 16.09 Cloudy OVC009 12 9     86%     1002 1001.4 0   0
May 17 04:27 SSW 9 16.09 Light Rain OVC009 12 9     86%     1001.7   0    
May 17 03:53 SSW 11 16.09 Light Rain BKN012 BKN030 OVC060 12 9     86%     1001.7 1000.8 0    
May 17 03:13 S 13 16.09 Light Rain OVC010 12 10     89%     1001.7   0    
May 17 02:53 S 8 16.09 Light Rain BKN008 BKN013 OVC028 12 10     89%     1001.7 1000.6 0    
May 17 01:53 S 8 16.09 Light Rain SCT010 BKN018 OVC055 12 10     89%     1001.4 1000.7 0 0  
May 17 00:53 SSE 5 9.66 Light Rain and Fog/Mist FEW008 BKN014 OVC020 12 10     89%     1001.4 1000.6 0    
May 17 00:45 S 5 9.66 Light Drizzle and Fog/Mist FEW009 BKN014 OVC022 12 11     93%     1001.4   0    
May 17 00:30 S 8 9.66 Light Drizzle and Fog/Mist FEW009 BKN022 OVC042 12 11     93%     1001.4   0    
May 16 23:53 SSE 9 9.66 Light Rain and Fog/Mist FEW006 SCT015 OVC035 12 11     93%     1001.4 1000.4 0    
May 16 23:11 S 8 12.87 Light Rain FEW003 BKN020 OVC037 12 11     93%     1001.7   0    
May 16 22:53 S 9 16.09 Cloudy BKN022 BKN037 OVC055 12 11     93%     1001.7 1000.7 0   0
May 16 22:38 SSE 9 16.09 Light Rain BKN022 BKN037 OVC055 12 11     93%     1001.7   0    
May 16 21:53 Calm 16.09 Light Rain FEW007 BKN044 OVC100 12 11     90%     1001 1000.3 0    
May 16 21:06 WSW 8 16.09 Light Rain FEW009 FEW015 OVC039 12 11     90%     1001   0    
May 16 20:53 SSW 9 16.09 Light Rain FEW015 SCT024 OVC038 12 11     90%     1001 1000.4 0    
May 16 20:45 SW 13 12.87 Light Rain FEW013 SCT024 OVC037 12 11     90%     1001.4   0    
May 16 20:37 SSW 11 9.66 Light Rain and Fog/Mist FEW014 BKN024 OVC037 12 11     90%     1001.4   0    
May 16 20:11 S 8 16.09 Cloudy FEW008 BKN014 OVC031 12 10     86%     1001        
May 16 19:53 S 11 16.09 Cloudy FEW008 SCT012 OVC031 13 10     83%     1001.4 1000.6   0  
May 16 18:53 WSW 18 16.09 Clear   13 11     86%     1000.3 999.9 0    
Notice The following observation data may not be complete
May 15 01:53 Calm 16.09 Clear CLR   5      %     1013.2 1011.7      
May 14 16:53 Calm 16.09 Mostly Clear FEW060 FEW250 28 0     16%   27 1014.6 1012.9      
May 14 02:53 Calm 16.09 Clear   14 7     62%     1016.3 1014.9      
May 13 21:53 NW 5 16.09 Mostly Clear FEW100 18 6     45%     1015.2 1013.9      
May 13 15:53 NNE 15 16.09 Mostly Clear FEW060 27 2     20%   26 1014.2 1012.9      
May 12 05:53 Calm 16.09 Patchy Fog FEW200 7 6     93%     1019 1019      
May 12 01:53 Calm 16.09 Clear CLR 9 7     86%     1019 1018.8      
May 11 05:53 Calm 16.09 Patchy Fog FEW006 SCT130 BKN200 6 6     97%     1016.6 1017      
Jun 10 19:53 SSW 17 16.09 Clear   16 3     42%     1009.5 1009.1      
Jun 10 16:49   16.09 Mostly Cloudy FEW030 SCT050 BKN065 BKN130 17 2     36%     1008.1        
Jun 08 07:53 SSW 17 16.09 Cloudy SCT070 BKN090 OVC150 19 10     56%     1004.8 1002.4      
Jun 07 10:53 ENE 17 16.09 Partly Cloudy FEW012 SCT240 25 10     39%   25 1010.5 1008.6      
Notice The following observation data may not be complete
Jun 07 05:53 NE 9 16.09 Partly Cloudy FEW170 SCT200   8      %     1012.5 1010.8